Kozani, Greece

5:15 PM EEST on June 24, 2017 (GMT +0300)
Kozani

Weather History for LGKZ - April, 2014

Change the Weather History Date:

Friday, April 25, 2014

  Actual Average Record
Temperature  
Mean Temperature 60 °F -  
Max Temperature 68 °F - - ()
Min Temperature 51 °F - - ()
Degree Days  
Heating Degree Days 6    
Growing Degree Days 10 (Base 50)    
Moisture  
Dew Point 52 °F    
Average Humidity 86    
Maximum Humidity 94    
Minimum Humidity 49    
Precipitation  
Precipitation 0.00 in - - ()
Sea Level Pressure  
Sea Level Pressure 29.81 in    
Wind  
Wind Speed 3 mph ()    
Max Wind Speed 9 mph    
Max Gust Speed -    
Visibility 6.2 miles    
Events Rain , Thunderstorm    
T = Trace of Precipitation, MM = Missing Value Source: Averaged Metar Reports

Daily Weather History Graph

Daily Weather History Graph

Search for Another Location

Airport or City:

Trip Planner

Search our weather history database for the weather conditions in past years. The results will help you decide how hot, cold, wet, or windy it might be!

Date:

Astronomy

Apr. 25, 2014 Rise Set
Actual Time 6:40 AM EEST 8:21 PM EEST
Civil Twilight 6:11 AM EEST 8:50 PM EEST
Nautical Twilight 5:36 AM EEST 9:25 PM EEST
Astronomical Twilight 4:59 AM EEST 10:03 PM EEST
Moon 4:18 AM EEST (4/25) 4:22 PM EEST (4/25)
Length of Visible Light 14h 39m
Length of Day
13h 41m
Waning Crescent, 18% of the Moon is Illuminated
Apr 25
Waning Crescent
Apr 29
New
May 7
First Quarter
May 14
Full
May 21
Last Quarter

Hourly Weather History & Observations

Time (EEST) Temp. Dew Point Humidity Pressure Visibility Wind Dir Wind Speed Gust Speed Precip Events Conditions
12:20 AM 53.6 °F 51.8 °F 94% 29.80 in - Variable 1.2 mph - N/A   Unknown
12:50 AM 55.4 °F 51.8 °F 88% 29.80 in - Variable 3.5 mph - N/A Rain Light Rain
1:20 AM 53.6 °F 51.8 °F 94% 29.80 in - North 4.6 mph - N/A Rain Rain
1:50 AM 53.6 °F 51.8 °F 94% 29.80 in - Variable 2.3 mph - N/A Rain Light Rain
2:20 AM 53.6 °F 51.8 °F 94% 29.80 in - Variable 2.3 mph - N/A Rain Light Rain
2:50 AM 53.6 °F 51.8 °F 94% 29.80 in - Variable 3.5 mph - N/A   Unknown
3:20 AM 53.6 °F 51.8 °F 94% 29.80 in - Variable 3.5 mph - N/A   Unknown
3:50 AM 53.6 °F 51.8 °F 94% 29.77 in - Variable 3.5 mph - N/A   Unknown
4:20 AM 53.6 °F 51.8 °F 94% 29.77 in - Variable 1.2 mph - N/A   Unknown
4:50 AM 53.6 °F 51.8 °F 94% 29.77 in - Variable 1.2 mph - N/A   Unknown
5:20 AM 53.6 °F 51.8 °F 94% 29.77 in - Variable 2.3 mph - N/A Rain Light Rain
5:50 AM 53.6 °F 51.8 °F 94% 29.77 in - Variable 2.3 mph - N/A   Unknown
6:20 AM 53.6 °F 51.8 °F 94% 29.77 in - NNW 4.6 mph - N/A Rain Light Rain
6:50 AM 51.8 °F 50.0 °F 94% 29.80 in - Variable 2.3 mph - N/A   Unknown
7:20 AM 53.6 °F 51.8 °F 94% 29.80 in - North 4.6 mph - N/A Rain Light Rain
7:50 AM 53.6 °F 51.8 °F 94% 29.80 in 6.2 mi Calm Calm - N/A   Overcast
8:50 AM 53.6 °F 51.8 °F 94% 29.80 in 6.2 mi Calm Calm - N/A   Overcast
9:50 AM 57.2 °F 51.8 °F 82% 29.83 in 6.2 mi NNW 4.6 mph - N/A   Mostly Cloudy
10:50 AM 60.8 °F 53.6 °F 77% 29.83 in 6.2 mi North 4.6 mph - N/A   Mostly Cloudy
11:50 AM 62.6 °F 51.8 °F 68% 29.83 in 6.2 mi NNW 8.1 mph - N/A   Mostly Cloudy
12:50 PM 64.4 °F 50.0 °F 59% 29.80 in 6.2 mi North 9.2 mph - N/A   Mostly Cloudy
1:50 PM 68.0 °F 48.2 °F 49% 29.80 in 6.2 mi NW 9.2 mph - N/A   Mostly Cloudy
2:50 PM 64.4 °F 48.2 °F 56% 29.80 in 6.2 mi WSW 5.8 mph - N/A   Mostly Cloudy
3:50 PM 64.4 °F 51.8 °F 64% 29.77 in 6.2 mi ESE 6.9 mph - N/A   Mostly Cloudy
4:50 PM 64.4 °F 50.0 °F 59% 29.77 in 6.2 mi South 8.1 mph - N/A   Mostly Cloudy
5:50 PM 62.6 °F 51.8 °F 68% 29.77 in 6.2 mi SSE 4.6 mph - N/A   Mostly Cloudy
6:50 PM 60.8 °F 53.6 °F 77% 29.80 in 6.2 mi SSE 6.9 mph - N/A Thunderstorm Thunderstorm
7:50 PM 57.2 °F 55.4 °F 94% 29.80 in 5.6 mi NNW 4.6 mph - N/A Rain Light Rain
8:50 PM 55.4 °F 53.6 °F 94% 29.83 in 6.2 mi North 3.5 mph - N/A   Overcast
9:20 PM 53.6 °F 51.8 °F 94% 29.83 in - Variable 2.3 mph - N/A   Unknown
9:50 PM 53.6 °F 51.8 °F 94% 29.86 in - Variable 1.2 mph - N/A   Unknown
10:20 PM 55.4 °F 53.6 °F 94% 29.86 in - Variable 1.2 mph - N/A Rain Light Rain
10:50 PM 55.4 °F 53.6 °F 94% 29.86 in - Variable 2.3 mph - N/A Rain Light Rain
11:20 PM 55.4 °F 53.6 °F 94% 29.86 in - Variable 1.2 mph - N/A   Unknown
11:50 PM 53.6 °F 51.8 °F 94% 29.86 in - Variable 1.2 mph - N/A   Unknown